Regional Weather Roundup
Issued by NWS

Home | Current Version | Previous Version | Text Only | Print | Product List | Glossary On
Versions: 1 2 3 4 5 6 7 8 9 10 11 12 13 14 15 16 17 18 19 20 21 22 23 24 25 26 27 28 29 30 31 32 33 34 35 36 37 38 39 40 41 42 43 44 45 46 47 48 49 50
000
ASUS43 KLMK 281410
RWRKY
KENTUCKY REGIONAL WEATHER ROUNDUP
NATIONAL WEATHER SERVICE LOUISVILLE KY
1000 AM EDT SAT MAY 28 2016

NOTE "FAIR" INDICATES FEW OR NO CLOUDS BELOW 12,000 FEET
WITH NO SIGNIFICANT WEATHER AND/OR OBSTRUCTIONS TO VISIBILITY.

KYZ001>023-026-027-061>063-070>075-281500-
WESTERN AND SOUTH CENTRAL KENTUCKY

CITY           SKY/WX    TMP DP  RH WIND       PRES   REMARKS
PADUCAH        CLOUDY    74  65  73 SE8       30.00R
HENDERSON      CLOUDY    73  64  73 S12       30.02R
OWENSBORO      CLOUDY    78  69  73 S14       30.05R
HOPKINSVILLE   CLOUDY    77  67  72 S8        30.06R
BOWLING GREEN  CLOUDY    76  66  71 S9        30.09R
GLASGOW        CLOUDY    74  65  73 S5        30.11R
$$

KYZ024-025-028>034-038-045-046-053-281500-
NORTH CENTRAL KENTUCKY

CITY           SKY/WX    TMP DP  RH WIND       PRES   REMARKS
LOUISVILLE/SDF CLOUDY    74  67  78 S8        30.08R
LOUISVILLE/LOU CLOUDY    73  66  78 SE5       30.09R
FORT KNOX      CLOUDY    74  66  76 S9        30.08R
$$

KYZ035>037-039>044-047>052-055>060-089>105-281500-
NORTHEAST KENTUCKY

CITY           SKY/WX    TMP DP  RH WIND       PRES   REMARKS
LEXINGTON      CLOUDY    75  64  68 S10       30.13R
COVINGTON      CLOUDY    75  67  76 S8        30.10R
FRANKFORT      CLOUDY    75  65  70 S5        30.10R
$$

KYZ054-064>069-076>088-106>120-281500-
SOUTHEAST KENTUCKY

CITY           SKY/WX    TMP DP  RH WIND       PRES   REMARKS
JACKSON        MOSUNNY   73  65  75 CALM      30.17R
LONDON         CLOUDY    74  63  68 S5        30.16R
SOMERSET       PTSUNNY   73  63  68 S7        30.16R
MIDDLESBORO    SUNNY     68  65  91 CALM      30.18R
MONTICELLO     MOSUNNY   76  64  66 VRB5      30.16R
$$





USA.gov is the U.S. government's official web portal to all federal, state and local government web resources and services.